Plains, MT (59859)

9:09 PM MDT on May 28, 2015 (GMT -0600)
Valley View | | Change Station
CLOSE
Current Station
Personal Weather Station
Location: Plains, MT
Elevation: 2644 ft
Nearby Weather Stations

Elev 2644 ft 47.44 °N, 114.90 °W | Updated 4 minutes ago

Partly Cloudy
Partly Cloudy
59.7 °F
Feels Like 59.7 °F
N
0.0
Wind Variable Wind from SSW
Gusts 5.0 mph

Today
High -- | Low -- °F
--% Chance of Precip.
Yesterday
High -- | Low -- °F
Precip. -- in
5:49 AM 9:24 PM
Waxing Gibbous, 80% visible
Pressure 30.17 in
Visibility 10.0 miles
Clouds Overcast 8000 ft
Dew Point 48 °F
Humidity 66%
Rainfall 0.02 in
Snow Depth Not available.
UV 0 out of 12
Pollen 6.30 out of 12
Air Quality Not available.
Flu Activity Sporadic
METAR KMSO 290253Z 07009KT 10SM OVC080 17/07 A3018 RMK AO2 SLP216 60000 T01670072 53009

More Conditions Fewer Conditions

Pressure 30.17 in
Visibility 10.0 miles
Clouds Overcast 8000 ft
Dew Point 48 °F
Humidity 66%
Rainfall 0.02 in
Snow Depth Not available.
UV 0 out of 12
Pollen 6.30 out of 12
Air Quality Not available.
Flu Activity Sporadic
METAR KMSO 290253Z 07009KT 10SM OVC080 17/07 A3018 RMK AO2 SLP216 60000 T01670072 53009

More Conditions Fewer Conditions

10-Day Weather Forecast

Almanac

Astronomy

May. 28, 2015 Rise Set
Actual Time
Civil Twilight
Nautical Twilight
Astronomical Twilight
Moon
Length of Visible Light
Length of Day
Tomorrow will be .
, % of the Moon is Illuminated

Today's Extremes

State Highs State Lows

Community

WunderPhotos

Upload Photos

1,825,149 photos uploaded!

WunderBlogs® & News

Nearby

Air Quality

  Air Quality AQ Index Pollutant
Not available.

Snow Depth

Station Depth Elevation

Earthquake Activity

City Distance Mag. Time & Date
Minimum magnitude displayed is 2.5.

Coastal Water Temperatures

Place Temperature

Stations

Nearby Weather Stations

Station Location Temp. Windchill Dew Point Humidity Wind Precip. Elev Updated Type